This demonstration page uses our WeatherBlox Daily Observations layout. Learn more.

Left ArrowRight Arrow

39.95238, -75.16362

Hourly Observations for June 7, 2022

Temp ( °F °C ) Dew Point ( °F °C ) Humidity (%) Winds ( mph kmh ) Pressure ( in mb ) Visibility ( mi km ) Precip ( " mm )
12:54 am 00:54 Partly Cloudy 65 18.3 53 11.7 66 66 S 7 11 30.06 1018 10 16 0.00 0.00
1:54 am 01:54 Mostly Cloudy 65 18.3 53 11.7 66 66 SSW 8 13 30.06 1018 10 16 0.00 0.00
2:54 am 02:54 Mostly Clear 65 18.3 56 13.3 73 73 S 8 13 30.05 1018 10 16 0.00 0.00
3:54 am 03:54 Mostly Clear 63 17.2 56 13.3 78 78 SSE 3 6 30.04 1017 10 16 0.00 0.00
4:54 am 04:54 Mostly Clear 62 16.7 56 13.3 80 80 S 5 7 30.05 1018 10 16 0.00 0.00
5:54 am 05:54 Mostly Cloudy 62 16.7 57 13.9 84 84 SSE 6 9 30.05 1018 10 16 0.00 0.00
6:54 am 06:54 Mostly Cloudy 64 17.8 58 14.4 81 81 VRB 3 6 30.06 1018 10 16 0.00 0.00
7:54 am 07:54 Mostly Cloudy 68 20 60 15.6 76 76 S 9 15 30.06 1018 10 16 0.00 0.00
8:54 am 08:54 Mostly Cloudy 73 22.8 61 16.1 66 66 S 14 22 30.05 1018 10 16 0.00 0.00
9:54 am 09:54 Mostly Cloudy 76 24.4 60 15.6 58 58 S 14 22 30.04 1017 10 16 0.00 0.00
10:54 am 10:54 Mostly Cloudy 78 25.6 61 16.1 56 56 S 15 24 30.03 1017 10 16 0.00 0.00
11:54 am 11:54 Mostly Cloudy 79 26.1 61 16.1 54 54 SSW 15 24 30.03 1017 10 16 0.00 0.00
12:54 pm 12:54 Cloudy 79 26.1 61 16.1 54 54 S 15 24 30.01 1016 10 16 0.00 0.00
1:54 pm 13:54 Cloudy 78 25.6 62 16.7 58 58 S 14 22 29.99 1016 10 16 0.00 0.00
2:54 pm 14:54 Cloudy 78 25.6 61 16.1 56 56 SSE 12 19 29.98 1015 10 16 0.00 0.00
3:54 pm 15:54 Cloudy 79 26.1 61 16.1 54 54 S 16 26 29.95 1014 10 16 0.00 0.00
4:54 pm 16:54 Cloudy 77 25 60 15.6 56 56 SSE 15 24 29.94 1014 10 16 0.00 0.00
5:54 pm 17:54 Cloudy with Light Rain 75 23.9 58 14.4 55 55 SSE 15 24 29.92 1013 10 16 0.00 0.00
6:54 pm 18:54 Cloudy 75 23.9 58 14.4 55 55 SSE 16 26 29.92 1013 10 16 0.00 0.00
7:54 pm 19:54 Cloudy 74 23.3 59 15 60 60 S 13 20 29.92 1013 10 16 0.00 0.00
8:54 pm 20:54 Cloudy 74 23.3 61 16.1 64 64 S 14 22 29.93 1013 10 16 0.00 0.00
9:54 pm 21:54 Cloudy with Light Rain 71 21.7 63 17.2 76 76 S 7 11 29.93 1014 10 16 0.03 0.76
10:42 pm 22:42 Cloudy with Rain 71 21.7 64 17.8 79 79 S 8 13 29.94 1014 6 10 0.03 0.76
10:54 pm 22:54 Cloudy with Light Rain 71 21.7 64 17.8 79 79 S 9 15 29.93 1013 6 10 0.04 1.02
11:06 pm 23:06 Cloudy 71 21.7 64 17.8 79 79 S 8 13 29.92 1013 10 16 0.00 0.00
11:54 pm 23:54 Cloudy 72 22.2 65 18.3 79 79 SSW 7 11 29.92 1013 10 16 0.00 0.00

Powered by AerisWeather